Location: Binningen
(47.7924°N, 8.7261°E)
Time: 07:43:19
(UTC+00:00)

SPOT 5 - Pass Details

Date: 17 May 2021
Orbit: 623 x 815 km, 98.2° (Epoch: 18 June)

Event Time Altitude Azimuth Distance (km) Brightness Sun altitude
Exits shadow 19:51:30 - 120° (ESE) 2,420 4.9 -7.9°
Reaches altitude 10° 19:51:41 10° 119° (ESE) 2,357 4.9 -8.0°
Maximum altitude 19:56:04 28° 62° (ENE) 1,485 4.3 -8.5°
Drops below altitude 10° 20:00:32 10° 6° (N) 2,415 6.1 -9.1°
Sets 20:03:12 0° 355° (N) 3,354 7.1 -9.4°
